星链-32941 (STARLINK-32941)

导读

STARLINK-32941是美国SpaceX星链星座的成员卫星,于2025年2月27日发射升空。星链项目旨在构建全球卫星互联网星座,为全球偏远地区、海洋航空等场景提供高速低延迟的互联网接入服务,该卫星入轨后将进一步扩充星链星座的在轨规模,提升星座的覆盖能力与服务稳定性。

Basic Information
目录编号:
63119
目录名称:
STARLINK-32941
国际标识:
2025-039R
轨道中心:
EARTH
卫星名称:
星链-32941
卫星全名:
星链-32941 (STARLINK-32941)
卫星状态:
在轨 (已飞行555 天)
发射日期:
2025-02-27 UTC
国别 :
美国 (US)
星等 :
--
Orbit Information
数据来源 国际轨道数据 AOE轨道数据
星历时间 2026-09-05T03:40:03+0800
13小时前
查看轨道信息
2026-09-03T09:00:00+0800
2天前
查看轨道信息
半长轴 6861.175km 6861.119km
偏心率 0.0001781 0.0000774
轨道倾角 43.003° 43.003°
近地点辐角 273.406° 233.934°
升交点赤经 69.778° 79.821°
平近点角 86.659° 57.924°
近地点 481.816km 482.45km
远地点 484.26km 483.514km
周期 94.267分钟 94.265分钟
每日圈数 15.275839 15.276025
Detailed Information
固有亮度:
5
最大亮度:
2.5
卫星平台:
Starlink V1.0
覆盖范围:
全球
运营商:
太空探索技术公司
运营商所在国:
美国
制造商(研发单位):
太空探索技术公司
制造商所在国:
美国
使用方式:
暂无
Satellite Introduction
Starlink 计划是 SpaceX 推出的全球卫星互联网项目,通过发射低轨道卫星,为全球尤其是偏远地区提供高速、低延迟的互联网服务。自 2019 年起,Starlink 已部署数千颗卫星,旨在缩小全球数字鸿沟,推动互联网普及。该项目还为军事、航空等行业提供通信支持,带来广泛经济效益。
2D Orbit Map
3D Orbit Map
Orbit Altitude Analysis Chart
Orbit Inclination Analysis Chart
Orbit Comprehensive Analysis Chart
View Comprehensive Chart
Conjunction Data List
Event ID Objects TCA Miss Dist (km) Collision Risk Probability Collision Risk Index (CRI) Action
CDM_260907-042905-619106-311921
HAWK-7A (56191)
2026-09-07T
04:29:45+0000
2.776 km
极远距离
1.221883E-6 低风险 0.37
CDM_260905-134204-282706-311921
OBJECT C (42827)
2026-09-05T
13:42:09+0000
2.474 km
极远距离
1.150233E-6 低风险 0.36